Flag for Canada Weather past 2 weeks in Belleville, Ontario, Canada

Now
63 °F

Clear.


Feels Like: 63 °F
Forecast: 54 / 76 °F
Wind: 8 mph from Northwest

Location: Trenton

Current Time: Jul 25, 2014 at 12:47:32 AM

Latest Report: Jul 25, 2014 at 12:00 AM


Visibility: 15 mi

Pressure: 30.01 "Hg

Humidity: 73%

Dew point: 54 °F

Location of BellevilleLocation

Historic Weather in Belleville — Graph

°F

Belleville temperature yesterday

Maximum temperature yesterday: 73 °F (at 2:00 PM)
Minimum temperature yesterday: 54 °F (at 5:00 AM)
Average temperature yesterday: 64 °F

Past Weeks' High & Low Weather Summary

 TemperatureHumidityPressure
High81 °F (Jul 13, 7:00 PM)100% (Jul 11, 6:00 AM)30.26 "Hg (Jul 11, 6:00 AM)
Low50 °F (Jul 17, 5:00 AM)44% (Jul 11, 6:00 PM)29.66 "Hg (Jul 15, 5:00 PM)
Average67 °F75%30.01 "Hg
* Reported Jul 9 11:00 PM — Jul 24 11:00 PM, Belleville, Weather by CustomWeather, © 2014

Note: Actual official high and low records may vary slightly from our data, if they occured in-between our weather recording intervals... More about our weather records

Advertising

Belleville weather history for previous 24 hours

 ConditionsComfort  
Time TempWeatherWind HumidityBarometerVisibility
11:00 PM
Jul 24
64 °FClear.8 mph73%29.99 "Hg15 mi
10:00 PM63 °FClear.No wind77%29.98 "Hg15 mi
9:00 PM66 °FSunny.6 mph73%29.96 "Hg15 mi
8:00 PM68 °FSunny.7 mph69%29.96 "Hg15 mi
7:00 PM70 °FSunny.10 mph64%29.96 "Hg15 mi
6:00 PM70 °FPassing clouds.10 mph60%29.97 "Hg15 mi
5:00 PM70 °FPassing clouds.13 mph60%29.98 "Hg15 mi
4:00 PM72 °FPassing clouds.10 mph61%29.99 "Hg15 mi
3:00 PM72 °FScattered clouds.2 mph44%30.01 "Hg15 mi
2:00 PM73 °FPassing clouds.5 mph44%30.02 "Hg15 mi
1:00 PM72 °FPassing clouds.6 mph47%30.02 "Hg15 mi
12:00 PM70 °FPassing clouds.9 mph50%30.03 "Hg15 mi
11:00 AM68 °FPassing clouds.13 mph49%30.03 "Hg15 mi
10:00 AM66 °FPassing clouds.12 mph52%30.04 "Hg15 mi
9:00 AM63 °FPassing clouds.8 mph64%30.05 "Hg15 mi
8:00 AM59 °FPassing clouds.8 mph77%30.04 "Hg15 mi
7:00 AM55 °FPassing clouds.7 mph82%30.03 "Hg15 mi
6:00 AM54 °FPassing clouds.8 mph88%30.02 "Hg15 mi
5:00 AM54 °FPassing clouds.6 mph88%30.00 "Hg15 mi
4:00 AM55 °FPassing clouds.7 mph77%29.99 "Hg15 mi
3:00 AM57 °FPassing clouds.6 mph77%29.98 "Hg15 mi
2:00 AM57 °FClear.7 mph77%29.98 "Hg15 mi
1:00 AM59 °FClear.9 mph77%29.98 "Hg15 mi
12:00 AM61 °FPassing clouds.8 mph77%29.98 "Hg15 mi
Weather by CustomWeather, © 2014

See weather overviewHow to use our weather pages